[Iaude] MPEC J38: 2024 JN [a=1.10,e=0.11,i=0.8,H=28.2]

mpec at cfa.harvard.edu mpec at cfa.harvard.edu
Fri May 3 06:37:53 EDT 2024


M.P.E.C. 2024-J38                                   Issued 2024 May 3, 10:36 UT

     The Minor Planet Electronic Circulars contain information on unusual
         minor planets, routine data on comets and natural satellites,
         and occasional editorial announcements.  They are published
    on behalf of Division F of the International Astronomical Union by the
          Minor Planet Center, Smithsonian Astrophysical Observatory,
                          Cambridge, MA 02138, U.S.A.
			  
             Prepared using the Tamkin Foundation Computer Network

                              MPC at CFA.HARVARD.EDU
            URL https://www.minorplanetcenter.net/    ISSN 1523-6714

                                    2024 JN                                     


Observations:
     K24J00N* C2024 05 02.37702515 35 50.270+12 58 28.26         21.27wXEJ038F52
     K24J00N  C2024 05 02.38813915 35 54.201+12 59 37.38         21.75wXEJ038F52
     K24J00N  C2024 05 02.39927215 35 58.089+13 00 46.09         21.52wXEJ038F52
     K24J00N  C2024 05 02.41043915 36 01.916+13 01 54.66         21.18wXEJ038F52
     K24J00N  C2024 05 02.46923115 36 21.689+13 07 51.72         20.62GVEJ038F52
     K24J00N  C2024 05 02.46988115 36 21.903+13 07 55.40         21.38GVEJ038F52
     K24J00N KB2024 05 03.25604 15 43 21.408+14 28 15.82         20.9 GVEJ038734
     K24J00N KB2024 05 03.26920 15 43 27.086+14 29 44.84         21.0 GVEJ038734
     K24J00N KC2024 05 03.34425815 44 04.654+14 38 51.97         21.19GVEJ038I52
     K24J00N KC2024 05 03.34550815 44 05.140+14 39 00.04         21.00GVEJ038I52
     K24J00N KC2024 05 03.34674715 44 05.622+14 39 08.17         20.79GVEJ038I52
     K24J00N KC2024 05 03.34798615 44 06.176+14 39 16.85         21.06GVEJ038I52
     K24J00N 1C2024 05 03.39819615 44 27.085+14 44 50.21         20.86GVEJ038G96
     K24J00N 1C2024 05 03.40334715 44 29.288+14 45 23.76         20.80GVEJ038G96
     K24J00N 1C2024 05 03.40849915 44 31.484+14 45 57.56         21.22GVEJ038G96
     K24J00N 1C2024 05 03.41366015 44 33.688+14 46 31.73         21.02GVEJ038G96

Observer details:
734 Farpoint Observatory, Eskridge.  Observers D. Cromer, G. Hug, D. Goodin,
    R. Valentine, P. Lessig.  Measurer G. Hug.  0.69-m f/3.54 reflector + CMO.
F52 Pan-STARRS 2, Haleakala.  Observers J. Herman, T. Lowe, P. Minguez, A.
    Schultz, I. Smith.  Measurers K. Chambers, T. de Boer, J. Fairlamb, H.
    Gao, M. Huber, C.-C. Lin, E. Magnier, Y. Ramanjooloo, R. Wainscoat, R.
    Weryk.  1.8-m Ritchey-Chretien + CCD.
G96 Mt. Lemmon Survey.  Observer H. Groeller.  Measurers T. Beuden, V. F.
    Carvajal, D. Fay, J. B. Fazekas, D. C. Fuls, A. R. Gibbs, A. D. Grauer, H.
    Groeller, J. K. Hogan, R. A. Kowalski, S. M. Larson, G. J. Leonard, D.
    Rankin, R. L. Seaman, F. C. Shelly, K. W. Wierzchos.  1.5-m reflector +
    10K CCD.
I52 Steward Observatory, Mt. Lemmon Station.  Observer V. F. Carvajal.
    Measurers T. Beuden, V. F. Carvajal, D. Fay, J. B. Fazekas, D. C. Fuls, A.
    R. Gibbs, A. D. Grauer, H. Groeller, J. K. Hogan, R. A. Kowalski, S. M.
    Larson, G. J. Leonard, D. Rankin, R. L. Seaman, F. C. Shelly, K. W.
    Wierzchos.  1.0-m prime focus + CCD.

Orbital elements:
2024 JN                                                  Earth MOID = 0.0097 AU
Epoch 2024 Mar. 31.0 TT = JDT 2460400.5                 MPC                     
M 283.44193              (2000.0)            P               Q                  
n   0.85547090     Peri.  182.31615     +0.20105114     +0.97948958             
a   1.0990039      Node    99.28250     -0.89852994     +0.18983274             
e   0.1114089      Incl.    0.77590     -0.39015688     +0.06755513             
P   1.15           H   28.25          G   0.15           U   7                  
Residuals in seconds of arc
240502 F52  0.2-  0.3-    240503 734  0.7-  0.2-    240503 G96  0.2-  0.1+
240502 F52  0.1-  0.0     240503 734  0.8+  0.2-    240503 G96  0.1+  0.2-
240502 F52  0.0   0.0     240503 I52  0.2+  0.2+    240503 G96  0.1+  0.2-
240502 F52  0.2-  0.1-    240503 I52  0.2-  0.1-    240503 G96  0.1-  0.2+
240502 F52  0.1+  0.1+    240503 I52  0.6-  0.3-
240502 F52  0.0   0.1-    240503 I52  0.0   0.1+

Ephemeris:
2024 JN                  a,e,i = 1.10, 0.11, 1                   q = 0.9766
Date    TT    R. A. (2000) Decl.     Delta      r    Elong.  Phase     V
2024 04 03    14 20 16.9 -03 32 11   0.08459 1.0783   157.3    21.0    24.1
...
2024 04 18    14 40 35.5 +00 53 39   0.04951 1.0512   161.8    17.4    22.7
...
2024 04 26    15 01 04.7 +05 37 37   0.03364 1.0374   157.6    21.6    22.0
...
2024 05 02    15 32 37.7 +12 23 16   0.02294 1.0275   149.1    30.3    21.4
2024 05 03    15 40 53.8 +14 03 22   0.02129 1.0260   146.8    32.5    21.3
2024 05 04    15 50 36.5 +15 57 19   0.01971 1.0244   144.2    35.1    21.2
...
2024 05 10    17 50 58.9 +33 22 07   0.01230 1.0152   115.9    63.5    21.0
...
2024 05 18    23 15 35.5 +32 59 00   0.01502 1.0040    59.8   119.5    23.9
...
2024 06 02    01 23 47.3 +15 29 15   0.03995 0.9873    46.8   131.5    27.1

A. U. Tomatic                (C) Copyright 2024 MPC           M.P.E.C. 2024-J38





More information about the Iaude mailing list